Formosa, Argentina

12:28 AM America on March 31, 2017 (GMT +0000)
Formosa

Weather History for SARF - November, 2012

Change the Weather History Date:

Monday, November 5, 2012

  Actual Average Record
Temperature  
Mean Temperature 84 °F -  
Max Temperature 96 °F 88 °F 96 °F (2012)
Min Temperature 71 °F 66 °F 55 °F (2002)
Cooling Degree Days 18    
Growing Degree Days 34 (Base 50)    
Moisture  
Dew Point 63 °F    
Average Humidity 54    
Maximum Humidity 73    
Minimum Humidity 30    
Precipitation  
Precipitation 0.00 in 0.22 in - ()
Sea Level Pressure  
Sea Level Pressure 29.81 in    
Wind  
Wind Speed 5 mph ()    
Max Wind Speed 12 mph    
Max Gust Speed -    
Visibility 6.5 miles    
Events      
Averages and records for this station are not official NWS values.
T = Trace of Precipitation, MM = Missing Value Source: Averaged Metar Reports

Daily Weather History Graph

Daily Weather History Graph

Search for Another Location

Airport or City:

Trip Planner

Search our weather history database for the weather conditions in past years. The results will help you decide how hot, cold, wet, or windy it might be!

Date:

Astronomy

Nov. 05, 2012 Rise Set
Actual Time 6:00 AM -03 7:12 PM -03
Civil Twilight 5:36 AM -03 7:37 PM -03
Nautical Twilight 5:07 AM -03 8:06 PM -03
Astronomical Twilight 4:37 AM -03 8:36 PM -03
Moon 12:00 AM -03 (11/5) 11:11 AM -03 (11/5)
Length of Visible Light 14h 01m
Length of Day
13h 12m
Waning Gibbous, 64% of the Moon is Illuminated
Nov 5
Waning Gibbous
Nov 6
Last Quarter
Nov 13
New
Nov 20
First Quarter
Nov 28
Full

Hourly Weather History & Observations

Time (-03) Temp. Heat Index Dew Point Humidity Pressure Visibility Wind Dir Wind Speed Gust Speed Precip Events Conditions
12:00 AM 75.2 °F - 60.8 °F 61% 29.83 in - SE 6.9 mph - N/A   Clear
1:00 AM 73.4 °F - 62.6 °F 69% 29.83 in - SE 4.6 mph - N/A   Clear
2:00 AM 73.4 °F - 62.6 °F 69% 29.80 in - SE 4.6 mph - N/A   Clear
3:00 AM 71.6 °F - 62.6 °F 73% 29.80 in - SE 4.6 mph - N/A   Clear
4:00 AM 71.6 °F - 62.6 °F 73% 29.80 in - SE 9.2 mph - N/A   Clear
5:00 AM 71.6 °F - 59.0 °F 64% 29.80 in - SE 3.5 mph - N/A   Clear
6:00 AM 71.6 °F - 60.8 °F 69% 29.80 in 6.2 mi SE 3.5 mph - N/A   Partly Cloudy
7:00 AM 71.6 °F - 60.8 °F 69% 29.80 in 6.2 mi ESE 2.3 mph - N/A   Partly Cloudy
8:00 AM 73.4 °F - 59.0 °F 61% 29.86 in 6.2 mi SE 5.8 mph - N/A   Partly Cloudy
9:00 AM 77.0 °F - 60.8 °F 57% 29.86 in 6.2 mi ESE 5.8 mph - N/A   Partly Cloudy
10:00 AM 82.4 °F 82.9 °F 60.8 °F 48% 29.89 in 6.2 mi East 6.9 mph - N/A   Partly Cloudy
11:00 AM 87.8 °F 87.1 °F 59.0 °F 38% 29.86 in 6.2 mi NE 8.1 mph - N/A   Partly Cloudy
12:00 PM 91.4 °F 93.2 °F 64.4 °F 41% 29.86 in 6.2 mi East 8.1 mph - N/A   Partly Cloudy
1:00 PM 93.2 °F 96.2 °F 66.2 °F 41% 29.83 in 6.2 mi NE 8.1 mph - N/A   Partly Cloudy
2:00 PM 96.8 °F 100.7 °F 66.2 °F 37% 29.83 in 6.2 mi ENE 5.8 mph - N/A   Partly Cloudy
3:00 PM 91.4 °F 94.0 °F 66.2 °F 43% 29.80 in 6.2 mi SE 9.2 mph - N/A   Partly Cloudy
4:00 PM 95.0 °F 97.0 °F 64.4 °F 36% 29.77 in 6.2 mi SE 6.9 mph - N/A   Partly Cloudy
5:00 PM 95.0 °F 94.4 °F 59.0 °F 30% 29.74 in 6.2 mi South 5.8 mph - N/A   Partly Cloudy
6:00 PM 93.2 °F 94.9 °F 64.4 °F 38% 29.74 in 6.2 mi SSE 11.5 mph - N/A   Partly Cloudy
7:00 PM 87.8 °F 89.4 °F 64.4 °F 46% 29.74 in 6.2 mi SSE 8.1 mph - N/A   Partly Cloudy
8:00 PM 84.2 °F 86.6 °F 66.2 °F 55% 29.77 in 6.2 mi SSE 6.9 mph - N/A   Partly Cloudy
9:00 PM 82 °F - 66 °F 48% 29.78 in 12 mi SSE 8.1 mph - -   Scattered Clouds
9:00 PM 82.4 °F 84.6 °F 66.2 °F 58% 29.80 in 6.2 mi SSE 8.1 mph - N/A   Partly Cloudy
10:00 PM 80.6 °F 82.3 °F 64.4 °F 58% 29.83 in - SE 4.6 mph - N/A   Clear
11:00 PM 77.0 °F - 64.4 °F 65% 29.83 in - ESE 4.6 mph - N/A   Clear